Location: Oshawa
(43.9000°N, 78.8670°W)
Time: 17:14:17
(UTC-04:00)

CZ-4C R/B - Visible Passes

Search period start: 19 April 2018 00:00
Search period end: 29 April 2018 00:00
Orbit: 412 x 502 km, 97.5° (Epoch: 18 April)

Date Brightness Start Highest point End Pass type
(mag) Time Alt. Az. Time Alt. Az. Time Alt. Az.
25 Apr 6.4 01:45:54 11° N 01:45:54 11° N 01:45:59 10° N visible
27 Apr 6.1 02:13:25 11° NNW 02:13:25 11° NNW 02:13:33 10° NNW visible
28 Apr 6.2 01:40:17 12° N 01:40:17 12° N 01:40:33 10° N visible
